Content
SEND FEEDBACK

Daily
Averages
Monthly
Summary
United States of America

O BRIEN, OREGON


Home > North America > United States > Oregon
Elevation: 171 feet     Latitude: 42 00N     Longitude: 123 43W

WEATHER
 
SELECT A DAY
Number of Records: 134,769;   Date Range: 8/2/05 - 8/14/14
 
SHARE

PRINT THIS DATA

[ ← Previous Day ]
WEATHER ALMANAC - JANUARY 31, 2013
[ Next Day → ]
[ °C ]   °F
Weather ElementAverageHighLow
Temperature45.5 °F55.9 °F (3:56 pm)36.9 °F (7:56 am)
Dewpoint43.5 °F48.9 °F (4:56 pm)36.9 °F (7:56 am)
Humidity93.1 %100 % (2:56 am)74 % (3:56 pm)
Barometer30.32 in30.38 in (1:56 am)30.25 in (10:56 pm)
Wind Speed2.5 mph8.1 mph (12:56 pm)
Weather ElementAverage
Visibility9.7 mi
Wind DirectionE (90 °)

Weather ElementTotal
Precipitation---
Heating Degree Days18.6 (Base 65)
Averaged from 23 records on January 31, 2013
WEATHER CONDITIONS BREAKOUT
WIND DIRECTION BREAKOUT
WEATHER BY HOUR - JANUARY 31, 2013
[ °C ]   °F
Local TimeTemperatureDewpointHumidityBarometerVisibilityWind DirectionWind SpeedGust SpeedPrecipitationEventsConditions
1:56 AM45.0 °F43.9 °F96 %30.38 in10.0 miVariable3.5 mphClear
2:56 AM41.0 °F41.0 °F100 %30.38 in10.0 miCalmClear
3:56 AM38.8 °F38.8 °F100 %30.37 in10.0 miCalmClear
4:56 AM38.8 °F38.8 °F100 %30.36 in10.0 miCalmClear
5:56 AM37.9 °F37.9 °F100 %30.35 in10.0 miCalmClear
6:56 AM37.9 °F37.9 °F100 %30.35 in10.0 miCalmClear
7:56 AM36.9 °F36.9 °F100 %30.36 in10.0 miCalmClear
8:56 AM43.9 °F43.0 °F97 %30.35 in10.0 miENE (60°)6.9 mphClear
9:56 AM47.8 °F43.9 °F86 %30.35 in10.0 miSE (140°)5.8 mphClear
10:56 AM47.8 °F45.0 °F90 %30.36 in10.0 miWNW (290°)4.6 mphClear
11:56 AM50.0 °F46.9 °F89 %30.34 in10.0 miCalmClear
12:30 PM51.8 °F46.4 °F82 %30.32 in2.5 miWNW (290°)5.8 mphClear
12:39 PM51.8 °F48.2 °F88 %30.32 in10.0 miWest (280°)5.8 mphClear
12:56 PM48.9 °F45.9 °F89 %30.32 in10.0 miWNW (290°)8.1 mphClear
1:56 PM52.9 °F45.9 °F77 %30.30 in10.0 miWNW (290°)8.1 mphClear
2:56 PM52.9 °F46.9 °F80 %30.29 in10.0 miWNW (290°)5.8 mphClear
3:56 PM55.9 °F47.8 °F74 %30.28 in10.0 miCalmClear
4:56 PM50.9 °F48.9 °F93 %30.28 in10.0 miSE (140°)3.5 mphClear
5:56 PM46.9 °F46.9 °F100 %30.27 in10.0 miCalmClear
6:56 PM45.0 °F45.0 °F100 %30.26 in10.0 miCalmClear
8:56 PM43.0 °F43.0 °F100 %30.26 in10.0 miCalmClear
10:56 PM41.9 °F41.9 °F100 %30.25 in10.0 miCalmClear
11:56 PM39.9 °F39.9 °F100 %30.25 in10.0 miCalmClear
Hourly data recorded from KBOK, located miles away from O Brien, Oregon







STORIES FROM OUR PARTNERS